Regional Weather Roundup
Issued by NWS

Home | Current Version | Previous Version | Graphics & Text | Print | Product List | Glossary On
Versions: 1 2 3 4 5 6 7 8 9 10 11 12 13 14 15 16 17 18 19 20 21 22 23 24 25 26 27 28 29 30 31 32 33 34 35 36 37 38 39 40 41 42 43 44 45 46 47 48 49 50
486
ASUS44 KJAN 260503
RWRMS

MISSISSIPPI HOURLY WEATHER ROUNDUP
NATIONAL WEATHER SERVICE JACKSON MS
1100 PM CST TUE NOV 25 2014

NOTE: "FAIR: INDICATES FEW OR NO CLOUDS BELOW 12,000 FEET WITH NO
SIGNIFICANT WEATHER AND/OR OBSTRUCTIONS TO VISIBILITY.

MSZ001>002-007>008-010>013-018>021-025>028-034>036-260600-
NORTHWEST MISSISSIPPI

CITY           SKY/WX    TMP DP  RH WIND       PRES   REMARKS
CLARKSDALE     FAIR      34  32  93 CALM      30.20F
CLEVELAND      FAIR      34  31  87 CALM      30.19F
GREENWOOD      CLEAR     30  27  88 NE3       30.21F
GREENVILLE     CLEAR     34  31  88 SW3       30.19F
GRENADA        FAIR      28  28 100 CALM      30.21F
OLIVE BRANCH   CLEAR     32  32 100 CALM      30.19F
OXFORD         FAIR      27  25  93 CALM      30.20F
TUNICA         CLEAR     32  32 100 E3        30.20F
$$

MSZ003>006-009-014>017-022>024-029>033-037>039-260600-
NORTHEAST MISSISSIPPI

CITY           SKY/WX    TMP DP  RH WIND       PRES   REMARKS
COLUMBUS AFB   CLEAR     35  27  74 NW6       30.18F WCI  30
CORINTH        FAIR      32  27  80 CALM      30.18S
GOLDN TRIANGLE CLEAR     37  27  65 NW5       30.17F WCI  34
STARKVILLE       N/A     30  28  93 CALM      30.19F
TUPELO         CLEAR     35  25  66 N3        30.19S
$$

MSZ040-058-260600-
CENTRAL MISSISSIPPI

CITY           SKY/WX    TMP DP  RH WIND       PRES   REMARKS
JACKSON INTL   CLEAR     31  27  85 CALM      30.20F
JACKSON HAWKNS CLEAR     34  28  79 CALM      30.21F
MERIDIAN KEY   PTCLDY    38  29  70 NW3       30.18F
MERIDIAN NAS   PTCLDY    40  30  67 NW7       30.18F
RAYMOND        FAIR      32  27  80 MISG      30.21F
VICKSBURG      CLEAR     29  27  92 CALM      30.22S
$$

MSZ059>079-260600-
SOUTH MISSISSIPPI

CITY           SKY/WX    TMP DP  RH WIND       PRES   REMARKS
BROOKHAVEN     FAIR      34  32  93 CALM      30.22F
HATTIESBURG    PTCLDY    43  32  65 NW6       30.21F
MCCOMB         CLEAR     38  30  73 NW3       30.21F
NATCHEZ        CLEAR     34  28  80 S3        30.22F
PINE BELT      PTCLDY    39  28  65 CALM      30.20F
$$

MSZ080>082-260600-
COASTAL MISSISSIPPI

CITY           SKY/WX    TMP DP  RH WIND       PRES   REMARKS
BILOXI         CLOUDY    49  30  48 N12       30.17S
PASCAGOULA     CLOUDY    49  31  49 NW6       30.16F
GULFPORT       CLOUDY    48  31  51 NW9       30.18R
$$



USA.gov is the U.S. government's official web portal to all federal, state and local government web resources and services.